Wind_Speed
22 22 22 22 21 21 21 20 20 20 20 19 19 19 18 18 18 18 17 16 15 13 13 12 13 14 14 13 12 12 12 13 12 9 8 9 12 14 15 15 15 16 15 13 12 13 15 18 19 19 19 20 20 19 17 16 16 14 13 12 12 12 12 10 9 9 9 7 10 12 12 12 11 10 11 11 11 10 9 8 8 8 8 7 5 5 3 2
25 25 25 25 24 24 24 23 23 23 22 22 21 21 20 19 19 19 19 18 17 15 15 14 14 14 14 14 13 13 13 14 13 11 11 12 12 13 15 16 17 17 16 16 15 14 15 18 21 21 20 21 22 20 19 18 17 17 15 13 13 13 13 12 11 10 9 8 9 12 13 12 11 10 9 10 11 10 10 9 8 8 9 9 7 7 6 3
26 26 26 26 26 26 26 26 26 25 25 25 24 24 23 22 21 20 20 20 18 17 16 15 15 14 14 15 14 14 14 14 14 12 14 14 13 12 13 15 17 18 17 18 20 20 20 22 23 24 23 23 23 22 21 20 19 18 17 15 14 14 13 13 13 12 10 9 10 12 13 12 11 11 10 9 9 8 9 8 7 8 8 8 8 8 8 5
27 27 27 27 27 27 27 27 27 27 27 26 26 26 26 25 24 23 22 22 21 19 18 17 17 16 15 16 16 15 14 14 14 13 15 16 15 13 12 14 16 18 18 17 19 21 22 21 21 22 23 23 23 23 22 22 21 20 19 18 16 15 14 13 13 13 11 10 10 11 12 11 11 11 11 10 9 8 7 7 7 7 7 7 8 9 9 8
26 26 26 27 27 27 27 27 27 27 27 27 27 27 27 27 27 26 25 24 23 21 20 18 18 18 17 17 17 17 16 15 15 14 15 17 17 14 13 14 15 17 18 17 18 19 19 18 18 19 20 19 19 21 22 23 23 22 20 19 18 16 14 13 14 14 13 12 11 11 11 11 11 10 10 10 9 8 7 7 7 7 6 6 6 8 10 10
26 26 26 26 27 27 27 27 27 27 27 27 27 27 28 28 28 28 27 27 26 25 22 21 20 20 19 19 18 18 18 16 14 15 18 19 18 16 15 16 15 15 17 18 19 18 16 16 17 17 18 17 16 20 23 23 23 23 21 19 19 18 16 14 15 16 15 13 12 11 12 12 11 10 10 10 8 7 8 8 7 7 7 6 5 8 10 12
24 25 25 25 26 26 27 27 27 27 27 28 27 27 28 29 29 29 29 28 28 27 26 24 22 22 21 21 20 20 20 17 15 18 20 19 18 17 17 17 16 15 17 19 20 18 16 15 16 17 18 17 17 21 23 23 23 22 21 20 20 19 18 17 17 17 15 13 12 12 13 12 12 11 11 9 8 8 9 9 8 7 8 7 7 8 8 11
22 23 23 23 24 25 26 26 27 27 27 28 28 28 28 29 29 29 29 29 29 29 28 27 26 25 23 22 22 22 22 19 18 20 19 18 19 18 18 19 18 17 17 20 21 21 19 17 18 19 19 17 18 22 24 23 23 21 21 22 22 22 21 20 18 17 15 14 13 13 13 12 12 13 11 9 8 8 8 8 8 8 8 7 7 8 8 9
21 21 22 22 22 23 24 24 25 26 26 27 28 27 28 28 29 29 30 30 30 29 29 29 28 27 26 25 24 24 24 22 20 21 19 18 20 20 20 20 20 19 19 20 21 21 21 19 20 21 22 21 22 24 26 24 22 22 24 25 24 24 23 22 20 18 15 14 16 16 13 12 13 13 12 11 10 9 8 8 8 8 7 7 7 9 10 11
21 21 22 22 22 23 24 24 24 25 25 26 27 27 27 27 28 29 30 30 30 30 30 30 30 29 29 28 27 27 26 25 23 22 21 19 20 22 22 22 21 21 21 20 19 19 21 23 25 26 27 27 26 26 27 24 25 27 29 26 24 25 24 22 21 19 16 16 18 19 16 14 14 13 12 11 10 9 9 8 8 8 6 7 8 9 10 10
22 22 23 23 23 24 24 25 25 25 25 26 26 26 26 26 27 28 29 30 31 30 30 30 30 30 30 30 30 30 29 27 25 24 23 22 22 23 24 23 23 23 23 22 20 21 25 28 30 30 30 29 28 28 27 27 29 32 31 27 25 27 25 23 22 20 18 18 19 21 18 15 14 13 12 11 9 8 8 8 9 8 6 7 8 9 10 10
25 25 25 25 25 25 26 26 26 26 26 27 27 26 26 26 26 27 28 29 30 30 31 31 31 31 31 32 32 32 31 29 28 27 26 26 25 25 25 25 25 25 24 24 24 25 27 30 32 31 29 29 30 30 29 30 34 35 34 29 27 28 26 24 22 20 20 20 20 20 18 15 14 14 14 13 11 8 8 8 9 8 7 7 8 9 10 10
29 28 28 28 28 28 28 28 28 28 28 28 28 27 27 27 27 28 28 29 30 29 29 30 31 31 31 33 33 33 34 33 32 30 29 28 28 27 26 26 27 27 27 27 28 28 28 30 32 31 31 31 31 31 30 32 36 37 35 31 30 30 28 26 24 21 20 21 21 19 18 17 15 14 14 15 13 10 9 9 8 9 8 8 8 9 10 11
32 32 32 31 31 32 32 31 31 31 31 31 30 29 28 28 28 28 29 30 30 29 28 28 29 30 32 33 33 35 36 36 35 32 31 30 30 29 29 28 28 29 29 29 29 29 29 29 30 33 34 32 32 31 31 34 37 37 36 34 32 31 28 27 26 23 21 21 20 18 19 19 16 14 14 15 14 11 10 9 7 8 10 9 9 9 10 11
36 36 36 36 35 35 35 35 35 35 35 34 34 33 32 31 31 31 31 31 30 29 29 28 28 29 31 33 34 36 37 36 36 34 33 32 32 32 32 31 31 31 32 32 31 30 30 30 29 31 32 32 34 33 33 35 37 38 37 34 31 29 27 28 27 24 22 22 21 18 18 19 16 15 15 14 13 11 11 10 8 8 9 10 10 9 10 10
37 37 38 38 38 38 38 38 38 38 38 38 37 36 36 35 35 35 35 34 32 31 30 29 29 29 31 32 34 36 36 36 36 35 36 35 34 35 35 34 33 32 32 33 33 32 32 31 29 29 31 34 35 33 33 35 38 39 37 32 30 29 28 28 27 24 24 24 22 19 18 19 17 16 16 14 13 11 11 11 9 8 9 10 10 9 8 9
37 37 38 38 38 39 39 39 39 40 40 40 40 39 39 39 38 39 39 38 36 34 33 32 31 30 31 32 34 36 36 34 34 36 37 37 37 37 37 36 34 34 33 34 35 34 33 32 31 30 31 33 35 35 35 35 36 36 33 29 28 29 31 30 26 25 25 25 23 20 20 20 18 16 16 15 14 13 13 13 10 9 10 10 11 9 7 8
37 38 38 38 38 38 38 39 39 40 40 41 41 41 41 41 41 41 42 42 40 39 37 36 34 33 33 33 33 35 36 35 34 35 37 38 39 40 40 39 38 37 37 36 35 34 34 33 33 33 33 33 34 34 32 30 30 31 29 26 26 29 31 30 27 26 26 25 25 22 20 21 20 18 17 17 16 14 14 15 12 10 10 9 10 10 8 8
39 39 40 40 40 40 39 39 39 39 40 41 41 42 42 42 42 43 45 44 43 42 42 40 39 38 36 34 34 34 36 37 36 36 37 38 40 42 43 43 42 41 40 38 35 34 34 34 35 35 33 29 26 26 27 27 28 30 29 28 28 29 30 29 29 29 28 27 27 23 21 22 23 20 18 19 18 17 17 16 13 11 9 9 10 10 9 9
41 41 42 42 42 42 42 42 42 41 41 41 42 43 43 44 44 45 47 47 45 45 45 44 43 42 40 38 37 35 36 38 39 38 38 37 40 43 44 45 45 45 42 39 36 35 35 37 36 31 25 22 22 23 26 27 29 31 30 29 30 30 29 30 31 33 33 31 28 26 24 25 25 22 20 21 21 19 17 16 13 10 8 9 10 10 11 10
43 43 44 44 44 45 45 44 44 44 43 43 43 44 44 45 45 45 47 49 49 47 47 47 46 46 45 43 41 40 39 40 41 41 40 39 41 43 46 47 47 46 43 40 40 39 39 39 33 25 23 25 26 25 25 26 29 32 31 29 29 28 28 30 33 35 36 33 30 29 28 27 26 24 23 24 24 20 16 16 15 13 11 11 12 11 10 9
46 46 47 47 47 48 48 47 47 47 46 45 45 45 45 45 46 46 45 47 50 50 49 49 50 49 48 47 46 44 44 44 44 44 43 41 42 44 46 48 48 47 44 45 45 44 43 37 26 24 29 31 29 28 27 26 28 31 32 31 29 26 26 29 32 35 37 35 31 31 31 28 27 27 27 27 25 21 19 19 19 18 16 15 13 12 10 9
48 48 49 50 50 50 50 50 50 50 49 49 48 47 47 46 47 48 46 46 48 50 49 50 51 51 50 50 49 48 48 48 47 46 45 44 44 44 46 48 49 48 47 49 48 46 43 31 22 27 34 33 32 32 29 28 29 31 33 32 29 25 26 27 29 34 38 35 31 33 33 30 31 32 31 30 27 25 24 24 24 23 21 18 17 15 13 12
48 48 48 49 49 49 49 49 49 49 50 50 49 49 48 46 46 47 47 46 47 48 49 49 50 51 51 51 51 51 51 50 51 50 47 46 46 46 46 47 49 49 49 50 49 48 43 31 26 34 36 34 35 34 32 32 31 32 33 32 29 25 25 26 30 35 37 35 32 34 36 33 34 35 32 31 31 29 29 28 27 25 23 22 20 18 15 13
48 47 47 47 47 46 45 44 43 43 44 44 45 46 45 43 43 42 42 43 43 45 46 47 49 49 50 51 51 51 52 52 53 53 50 48 48 48 47 47 49 50 50 50 50 50 45 37 34 38 37 36 37 35 34 33 32 32 32 31 28 26 26 29 33 35 35 35 34 35 37 34 35 35 33 34 34 32 30 29 27 25 24 22 18 16 14 12
48 47 46 44 42 39 36 34 32 32 33 34 35 37 37 37 37 36 36 37 38 39 41 43 46 47 48 49 49 50 50 51 52 54 53 50 49 50 49 48 48 49 50 50 51 52 47 41 40 42 40 38 38 38 36 34 33 32 27 27 28 29 31 32 34 36 37 37 36 37 37 35 36 36 35 36 35 32 31 29 27 25 23 20 16 15 14 13
47 45 42 37 32 28 26 24 23 23 24 26 28 30 31 32 32 32 33 33 32 34 36 39 41 43 46 46 46 47 48 49 50 52 54 53 50 51 50 50 49 49 50 52 54 54 49 44 45 47 44 41 41 39 36 34 33 27 22 28 33 34 34 34 35 38 38 38 38 39 39 38 38 38 36 36 35 34 33 30 28 26 23 20 18 17 15 14
42 37 31 26 23 21 21 21 21 23 24 26 27 28 29 30 30 30 30 31 28 27 30 33 34 36 39 40 41 42 44 47 49 50 53 53 52 51 50 51 52 52 52 54 56 53 48 46 48 49 47 43 40 36 33 34 32 25 25 32 35 35 35 35 37 39 38 39 41 40 41 41 39 38 37 37 37 37 35 31 28 27 24 21 19 19 18 16
33 26 23 21 22 23 23 23 24 26 27 29 30 30 31 31 31 30 30 30 28 25 25 27 30 32 32 34 37 37 38 42 44 46 50 52 51 51 52 52 53 54 54 54 56 53 47 47 50 51 49 44 38 34 34 38 34 28 29 34 34 36 38 39 41 41 40 44 45 41 42 42 39 37 38 38 38 36 33 30 29 28 25 22 20 19 18 18
24 21 22 23 25 27 28 28 28 29 29 30 31 31 32 32 32 32 32 32 30 27 26 26 27 29 28 29 33 36 36 37 39 41 46 50 50 50 52 54 53 55 56 55 56 53 48 49 52 53 51 46 40 37 38 39 35 33 34 35 36 39 41 43 44 42 45 50 47 41 42 44 39 38 39 36 32 33 33 32 32 31 28 25 23 22 20 20
20 22 25 26 28 29 30 32 33 33 32 32 33 32 32 32 32 32 32 32 31 30 29 29 29 30 30 30 32 36 37 37 37 38 41 45 48 50 52 54 54 54 57 58 57 54 51 52 54 55 53 50 46 44 42 40 37 38 40 39 40 42 44 47 48 47 52 55 46 39 41 46 41 37 36 32 28 33 35 34 34 33 29 25 24 23 21 20
22 25 27 29 31 31 32 33 34 34 32 31 31 30 30 31 31 31 30 30 31 31 30 31 32 33 34 34 34 36 38 39 39 39 40 41 44 48 51 55 56 56 57 59 59 58 54 52 54 56 56 54 52 49 47 44 42 44 46 44 44 46 48 52 53 54 57 55 46 40 42 49 40 32 33 32 30 34 36 35 35 33 29 26 24 22 21 20
25 28 30 32 33 33 33 33 33 33 32 30 30 29 29 29 29 29 29 29 31 31 31 32 33 35 36 36 35 36 37 40 42 42 42 41 42 45 49 53 56 57 58 59 61 61 57 54 56 57 57 58 57 54 51 49 47 48 50 49 48 50 52 55 56 56 57 53 45 41 44 50 40 30 34 33 28 32 35 36 37 36 33 29 24 21 20 20
28 30 33 34 34 34 33 33 33 33 33 32 30 29 27 27 27 26 27 28 29 30 31 33 34 36 38 39 38 38 38 40 42 44 44 43 42 43 46 50 55 58 59 60 62 64 61 58 58 58 59 60 59 56 53 49 47 47 48 48 48 49 50 52 54 55 56 52 45 42 47 52 40 29 32 31 29 32 35 35 38 38 37 34 29 24 22 22
31 33 35 35 35 34 34 34 34 34 34 32 30 28 25 24 25 26 27 29 31 32 33 35 35 36 37 39 39 40 40 41 43 44 45 44 43 43 44 47 53 57 59 61 63 66 65 61 60 60 61 61 60 57 54 51 49 47 48 49 50 49 48 49 51 52 53 51 45 44 49 50 37 25 29 32 32 33 34 33 36 38 38 37 35 31 29 27
34 35 36 37 37 36 35 35 35 35 34 32 29 27 25 25 26 28 29 31 32 34 36 38 39 39 39 39 39 41 42 42 43 45 47 46 45 44 43 44 50 55 59 62 64 66 67 64 62 61 60 60 61 59 57 54 51 50 51 52 50 48 47 47 48 48 51 52 46 44 47 46 36 25 28 34 35 34 33 32 34 36 37 38 37 34 33 31
37 37 38 38 37 37 36 35 36 35 33 31 29 28 28 29 30 31 32 33 35 37 38 39 41 42 43 42 42 43 43 43 44 45 47 48 46 44 43 43 47 53 57 61 64 66 67 65 63 62 61 61 62 61 59 57 53 51 51 50 48 47 47 46 46 46 50 53 48 44 46 46 37 28 27 31 34 34 33 32 33 35 38 38 36 33 33 32
37 38 38 39 38 37 36 36 35 35 33 32 31 31 32 33 34 35 35 36 38 40 41 41 41 42 44 45 46 46 46 45 46 47 48 48 46 44 43 42 45 50 56 60 63 66 67 67 65 64 62 63 63 61 59 58 56 52 49 49 50 49 48 48 49 49 50 54 51 45 46 45 37 29 26 28 30 30 31 33 34 36 36 36 34 32 32 33
37 38 39 39 38 37 36 36 35 34 33 32 32 33 35 36 36 36 36 38 40 41 41 41 41 42 44 47 49 51 50 49 47 47 48 47 45 44 43 42 43 48 54 59 62 65 67 68 67 65 64 63 64 63 60 58 57 53 51 53 53 51 48 48 50 49 48 51 51 46 45 44 37 29 25 25 27 27 29 33 34 33 31 30 29 29 30 31
36 38 39 38 37 37 36 35 34 33 33 32 32 33 35 36 36 37 39 40 41 41 41 41 41 42 45 49 52 54 54 52 49 47 48 48 45 43 43 42 42 46 52 58 61 63 67 70 68 65 65 64 63 63 60 58 58 56 55 57 56 53 51 49 49 49 48 49 49 46 45 42 35 30 26 24 26 27 28 29 30 30 28 25 23 24 26 29
36 37 37 36 36 35 35 34 33 32 32 31 32 34 35 36 37 39 40 40 40 40 39 40 41 42 42 43 45 48 49 50 49 46 47 47 46 44 43 43 43 45 49 56 60 62 66 70 69 65 65 65 63 62 61 60 60 59 59 59 56 55 54 53 53 52 50 50 49 47 47 41 34 32 30 25 24 27 28 28 28 29 28 25 22 21 22 25
36 35 35 35 35 35 34 33 32 31 30 31 33 34 35 37 37 38 39 38 38 39 39 39 37 33 30 28 28 33 38 42 44 44 44 45 45 44 43 43 43 44 48 54 59 62 65 70 71 66 65 65 62 60 61 61 62 62 61 60 57 55 56 56 55 53 50 51 49 48 48 42 34 32 30 26 24 27 30 29 29 29 29 27 25 22 21 22
36 35 34 34 34 34 34 32 30 30 30 32 33 35 36 36 36 36 37 37 37 37 36 33 28 23 20 20 22 24 29 34 36 39 41 42 42 43 42 42 43 43 47 53 58 62 64 68 71 67 65 64 60 58 60 61 62 62 62 61 59 57 57 57 56 53 50 51 49 48 49 39 30 29 29 28 26 26 29 31 30 31 30 29 28 27 25 23
35 35 34 34 33 32 31 29 28 29 30 32 33 34 34 34 34 34 35 36 35 33 30 27 23 21 21 22 24 23 24 28 30 32 36 38 39 41 41 41 42 44 47 52 58 63 64 66 70 68 64 62 57 56 58 61 63 63 63 63 61 59 57 57 57 55 54 53 48 50 47 32 25 28 28 28 28 26 27 29 29 30 30 29 28 28 28 27
34 35 34 34 33 31 29 28 27 28 31 32 33 33 33 33 33 34 34 34 31 26 27 27 25 25 25 25 25 24 22 24 26 27 31 34 35 37 39 40 40 43 48 51 55 61 64 65 68 69 67 63 58 57 60 63 64 65 64 63 61 60 58 57 58 58 57 53 49 51 43 26 24 31 30 29 31 28 28 28 29 31 32 32 32 31 31 31
33 35 35 34 33 33 33 31 29 30 31 32 32 32 32 33 34 34 32 29 24 20 23 26 27 27 27 25 25 24 22 22 24 25 27 30 31 33 37 39 38 40 46 52 54 58 64 65 66 68 69 65 59 58 61 65 65 65 65 63 61 60 59 58 59 59 58 53 51 52 39 26 29 34 32 30 31 29 29 29 28 31 33 34 36 37 37 37
33 35 35 34 34 34 34 33 32 32 32 32 32 32 32 33 34 33 29 23 18 18 20 22 23 24 24 24 24 23 22 21 23 24 26 27 29 30 33 37 38 36 40 50 55 57 62 66 66 67 70 67 60 58 61 64 65 65 66 64 62 61 61 60 59 57 56 54 53 49 36 29 33 36 34 32 30 27 27 27 27 29 32 34 38 40 41 40
33 34 34 34 33 33 34 33 33 33 33 32 31 31 32 32 33 30 24 18 16 17 19 19 20 20 20 20 19 18 18 19 20 23 25 26 27 28 30 34 37 35 34 42 53 58 62 65 66 66 69 69 62 58 60 63 64 65 66 65 62 62 62 61 59 57 55 55 53 46 35 32 34 35 33 31 28 27 27 27 28 29 32 34 36 37 38 39
32 32 33 33 33 33 34 34 34 33 32 32 31 30 31 31 29 25 19 16 15 15 16 17 16 15 15 16 14 14 16 17 18 21 23 24 25 26 27 30 34 36 33 35 47 59 62 63 65 66 67 69 65 58 60 63 63 64 65 65 63 63 63 62 60 57 56 55 51 42 35 33 33 32 31 29 29 30 30 30 30 31 31 31 31 34 36 39
31 31 32 33 33 34 34 34 34 32 32 31 30 31 31 29 26 22 16 14 15 13 13 12 11 12 13 14 14 14 15 17 18 19 22 23 23 24 26 27 31 35 35 32 41 57 62 62 65 67 66 68 67 61 60 63 63 62 64 65 65 64 63 62 60 57 56 55 48 39 35 35 33 33 34 33 34 34 33 33 32 31 30 27 26 30 34 38
31 31 32 33 34 34 34 34 34 32 31 30 30 31 30 27 23 19 15 12 12 12 12 12 10 9 11 13 14 14 15 16 17 19 21 23 23 24 25 27 29 33 36 34 37 52 62 62 64 66 66 65 67 64 62 63 63 61 61 65 67 65 63 62 60 58 57 53 46 40 38 36 35 37 39 37 36 35 34 33 32 29 26 23 24 28 33 38
30 31 32 34 34 34 35 34 33 32 31 30 30 30 29 25 21 17 14 12 11 11 12 12 10 9 11 12 13 14 15 16 17 19 21 23 24 23 24 27 30 32 35 35 35 47 61 64 64 67 66 64 66 66 64 62 62 61 61 64 67 65 64 63 61 59 57 52 46 43 40 38 38 40 41 39 36 34 33 32 30 26 23 23 25 28 31 35
Wind_Direction
288 288 288 288 288 288 287 287 287 287 288 289 289 289 289 289 290 289 289 287 285 285 282 280 278 277 274 265 254 250 251 253 252 249 244 234 230 226 222 220 221 227 227 221 209 212 220 219 219 218 216 216 218 219 217 213 203 194 193 192 190 184 174 173 179 171 163 162 154 155 163 173 182 181 186 194 195 202 207 208 201 181 169 168 167 166 150 223
286 286 286 286 285 285 284 284 283 283 283 284 284 284 284 284 285 285 285 284 283 281 279 277 275 274 275 271 261 252 248 249 249 248 248 241 235 232 228 225 222 222 219 215 210 206 213 217 219 220 218 217 219 220 220 221 214 203 195 195 200 193 180 177 180 178 171 166 152 147 152 164 172 171 179 191 194 205 214 211 208 194 177 170 168 171 154 174
285 285 285 284 283 283 282 282 281 280 280 280 279 279 279 279 279 279 280 280 280 278 275 274 272 270 271 272 267 259 251 248 246 245 248 245 239 235 233 231 228 227 223 215 208 204 207 212 213 214 216 216 217 218 220 223 222 214 201 198 206 199 188 185 185 186 184 181 174 161 157 164 170 169 169 178 184 199 212 205 204 202 185 175 171 177 157 145
286 285 284 284 283 282 281 280 280 279 278 277 277 276 275 275 274 274 274 276 276 275 274 272 271 268 266 268 268 264 257 250 245 241 246 248 242 237 236 234 229 229 231 226 215 211 213 215 214 213 216 216 215 216 219 222 223 222 211 203 206 203 197 195 193 193 191 185 184 176 169 172 177 178 176 178 180 186 201 203 206 202 190 188 184 183 162 143
286 286 285 284 283 282 281 280 279 278 277 276 276 275 274 273 272 271 270 270 271 271 271 270 269 267 265 264 265 265 262 254 247 242 244 247 244 237 235 236 233 229 231 232 228 224 221 220 222 223 224 224 219 217 219 222 223 223 219 211 209 207 206 206 202 198 192 185 187 183 177 177 180 187 185 183 187 188 197 205 210 207 199 202 201 196 170 149
287 287 286 285 284 283 282 281 279 278 277 276 275 274 273 272 271 270 268 267 267 267 266 266 265 265 263 261 261 261 260 256 251 244 240 242 243 238 234 236 235 232 230 230 231 231 224 217 222 228 232 234 227 217 220 222 223 225 223 219 215 210 210 213 208 203 194 187 189 189 184 183 186 194 192 186 190 196 200 203 204 206 203 196 197 207 182 158
290 289 288 287 286 284 283 282 280 279 277 276 274 273 272 271 270 269 268 266 265 264 263 261 261 261 261 260 258 257 258 255 250 245 240 241 244 240 238 238 235 232 230 228 227 228 227 218 216 222 229 233 226 220 224 225 224 225 224 225 223 215 212 212 211 207 198 189 193 198 194 194 195 193 192 189 190 201 206 202 200 202 204 195 187 199 187 166
294 293 292 291 289 287 285 284 282 280 278 276 274 272 271 270 269 268 267 266 264 263 262 259 257 257 258 258 257 255 255 252 247 248 245 242 243 241 239 240 237 231 229 227 223 221 220 213 211 215 220 225 223 219 223 226 225 226 227 227 226 222 215 210 211 211 203 193 194 202 199 198 198 187 186 186 186 201 208 202 197 197 202 195 180 181 175 167
297 296 295 294 293 291 289 287 285 283 281 278 276 274 272 271 270 268 267 266 264 263 261 259 257 254 254 254 254 253 252 250 246 248 247 241 240 238 236 237 237 234 231 230 227 223 218 211 210 211 212 216 218 218 219 221 224 227 228 228 227 227 220 210 208 209 207 200 195 197 194 196 199 191 187 184 181 192 199 195 189 189 201 197 179 175 172 170
297 296 296 295 294 293 291 290 288 286 285 282 279 276 275 273 272 270 268 266 264 262 261 259 257 255 252 251 251 250 250 249 245 244 246 243 240 238 234 232 234 233 232 230 227 223 218 213 212 209 207 210 211 214 216 215 219 225 228 226 225 227 225 215 208 205 207 207 199 195 193 197 201 196 189 183 180 187 187 186 190 194 208 200 178 172 172 173
298 297 295 294 293 292 291 289 288 288 287 285 282 279 277 276 274 272 270 268 265 263 261 260 258 256 253 250 248 248 249 248 246 243 242 242 240 239 235 231 231 231 230 230 225 218 215 214 214 212 209 208 208 210 211 209 216 225 228 225 222 225 225 219 211 203 203 206 201 198 196 194 197 196 187 179 179 192 192 186 193 201 205 192 175 168 167 166
300 298 297 295 294 292 290 289 288 286 285 284 282 281 280 278 277 275 272 270 267 265 263 262 259 257 254 251 248 247 248 246 245 242 239 239 238 237 236 231 229 229 227 226 225 219 215 215 217 215 213 212 210 209 208 207 213 222 225 223 222 225 224 221 217 208 205 206 206 205 199 192 196 197 188 181 181 192 198 191 188 190 185 182 176 167 164 162
302 300 298 297 296 294 292 291 289 287 285 283 281 281 280 278 277 275 274 271 267 266 266 265 263 260 256 253 250 248 246 243 242 241 239 238 238 237 235 231 228 228 227 226 226 225 221 219 218 215 214 214 212 212 209 208 213 220 224 222 221 224 223 223 222 214 209 211 212 212 207 205 210 205 192 185 183 188 196 195 188 177 167 173 180 171 163 166
303 301 300 298 297 296 294 293 291 289 287 285 282 281 279 278 276 274 272 270 268 267 266 266 265 264 260 255 251 247 245 243 242 242 240 238 238 238 237 235 231 228 227 227 228 228 228 225 221 218 216 214 214 215 212 210 214 219 224 223 221 222 221 222 223 216 214 217 218 218 218 222 226 218 204 190 185 191 196 193 186 176 167 169 181 178 171 174
302 301 300 299 298 297 295 294 292 291 289 287 284 283 281 279 277 274 272 269 268 267 265 264 264 264 263 260 254 249 246 244 242 240 240 239 239 239 239 238 235 231 228 228 228 227 228 228 226 224 221 217 216 217 215 214 215 218 224 224 224 224 221 222 224 219 218 221 221 221 225 232 233 224 216 200 190 193 191 186 184 183 178 176 181 182 177 175
302 300 299 298 297 296 294 293 292 291 290 288 286 284 283 281 279 277 274 270 267 266 264 262 261 260 261 261 258 254 250 247 243 240 238 238 238 239 240 240 239 237 233 231 231 228 227 227 227 225 223 221 219 218 218 218 217 220 225 225 226 228 225 225 226 222 222 224 223 220 227 236 230 222 220 208 194 191 188 186 186 193 196 191 187 182 175 171
302 301 299 297 296 294 293 291 290 289 288 287 286 285 283 282 280 278 275 272 269 267 265 263 261 258 257 258 258 257 256 251 246 242 238 236 236 238 240 241 241 241 239 236 233 231 228 227 227 226 224 223 222 220 220 222 222 225 229 226 226 228 227 228 227 225 224 226 225 221 228 237 229 221 224 216 199 190 189 191 191 198 205 203 196 186 179 177
304 302 300 298 296 294 292 290 289 287 286 285 284 283 282 281 279 278 275 273 271 269 267 264 261 259 256 256 256 257 258 256 249 244 240 236 235 235 237 238 238 237 238 238 236 233 231 228 226 227 225 224 225 225 227 230 229 231 235 232 229 228 228 229 230 229 228 228 229 222 223 236 235 226 227 223 208 195 194 198 197 198 204 210 206 197 190 187
307 305 302 300 298 295 293 291 289 287 285 283 282 281 280 278 277 275 274 273 272 270 268 266 264 262 258 255 255 255 256 256 251 246 241 237 235 235 235 236 237 236 235 237 237 235 233 230 227 227 228 231 235 237 238 236 230 230 233 231 229 229 229 229 230 232 232 231 232 225 219 230 236 232 228 224 215 204 201 202 200 198 204 214 217 210 198 193
308 306 303 301 299 296 294 291 289 287 284 282 281 279 278 276 275 273 273 271 269 269 268 267 266 264 261 258 255 253 253 254 252 247 243 238 235 234 234 235 236 236 236 236 237 237 234 232 230 229 231 236 238 237 235 234 230 228 229 228 226 226 225 226 229 233 234 232 232 230 225 228 233 232 226 221 215 206 201 201 199 197 203 211 220 217 203 195
310 308 305 303 300 298 296 293 291 288 285 283 281 279 277 275 274 272 272 271 268 266 265 265 264 263 262 260 258 255 253 252 251 248 244 240 236 234 233 234 235 236 236 236 235 235 233 232 229 226 225 227 227 228 227 228 229 229 228 228 226 223 219 219 224 230 235 233 231 233 231 228 230 228 221 218 214 205 197 196 194 194 199 205 214 218 208 194
311 309 306 304 302 300 298 296 294 291 289 286 283 281 279 276 274 271 270 271 269 266 264 263 262 260 260 259 258 256 254 253 251 249 246 241 238 236 234 233 234 234 234 234 234 233 233 230 225 222 223 223 222 222 221 220 224 227 226 225 222 220 216 215 219 227 235 235 232 235 235 230 230 224 215 213 210 203 198 195 194 194 193 196 206 215 210 192
310 308 306 305 303 301 300 298 296 295 293 290 288 286 283 280 277 274 270 269 269 267 264 262 261 259 258 258 257 255 254 253 251 249 247 243 239 238 236 234 233 233 232 232 233 233 233 229 221 224 224 221 221 221 217 215 217 221 222 220 217 215 213 212 215 223 232 235 231 234 235 229 226 221 211 207 205 202 200 197 197 196 188 188 198 204 202 194
310 308 307 306 304 303 301 300 298 297 295 294 292 289 287 284 281 278 274 270 269 267 265 262 260 258 257 256 256 255 254 252 251 248 246 244 241 239 238 237 234 233 232 232 233 232 231 224 217 223 225 221 221 221 218 214 214 216 217 215 212 213 211 208 213 220 228 232 229 230 231 225 222 219 210 205 204 203 202 200 199 195 186 188 194 195 198 195
311 309 308 307 306 304 303 302 300 299 298 296 294 292 290 288 284 280 276 271 268 266 264 262 260 257 255 254 253 253 252 251 251 249 246 243 242 240 238 238 237 235 233 233 232 231 228 221 215 220 223 221 221 221 219 217 215 216 215 211 208 210 210 207 211 218 223 226 225 225 228 223 219 219 212 207 206 205 205 204 200 194 187 188 190 193 201 199
312 311 310 308 306 305 304 305 305 304 303 302 300 297 295 292 289 286 280 274 269 266 263 261 259 257 254 252 251 250 250 249 249 249 246 242 240 239 236 235 237 237 235 234 233 231 226 220 217 219 221 219 219 220 219 218 216 215 213 211 208 208 210 209 210 215 218 221 222 224 225 220 217 218 214 210 207 204 205 204 199 195 189 185 186 194 202 202
313 313 312 310 308 308 309 311 311 310 310 308 307 305 302 299 296 293 288 281 275 269 264 261 260 257 253 251 250 249 248 247 246 246 246 242 239 239 237 234 234 235 235 235 234 231 225 219 217 219 219 217 216 217 218 220 219 212 206 211 209 205 209 210 210 214 217 219 222 224 224 220 216 215 213 211 206 203 205 203 197 195 190 184 185 189 195 203
316 315 315 314 313 313 314 316 314 311 309 305 303 301 299 298 297 296 293 288 283 275 267 263 262 259 255 252 248 247 247 247 245 244 243 242 239 237 235 233 230 231 232 234 235 232 226 222 220 220 220 219 216 215 219 222 218 206 202 212 211 205 207 210 212 214 215 219 222 222 224 222 217 215 215 213 207 204 205 203 198 195 192 189 188 187 189 200
319 319 320 320 318 317 316 315 311 307 304 301 298 296 293 291 291 291 289 288 288 284 275 269 266 263 261 258 251 246 245 245 246 244 241 240 237 234 233 231 228 227 228 232 234 232 225 222 222 222 221 219 216 214 217 220 215 203 203 211 211 207 206 208 213 212 213 220 220 218 223 225 218 213 217 215 209 207 206 204 202 199 197 195 194 193 191 197
322 322 321 320 318 318 316 312 307 304 301 298 296 294 292 288 286 285 283 283 286 285 281 278 273 270 269 268 262 255 249 245 246 247 243 238 235 232 230 229 228 226 226 227 232 232 225 221 222 222 220 217 214 213 215 217 212 202 203 208 210 209 206 208 212 211 214 222 219 213 220 227 220 211 216 217 210 208 207 205 205 202 202 201 198 198 197 197
323 321 319 317 315 315 312 309 306 303 299 296 294 292 290 287 285 283 282 281 281 280 279 277 275 273 271 270 269 267 262 256 251 249 246 241 235 230 228 227 226 225 224 224 227 229 225 222 221 220 219 217 213 211 212 213 208 203 204 206 208 209 206 208 210 210 217 224 219 208 216 228 222 206 211 216 207 206 207 205 205 205 207 207 204 203 201 200
322 319 316 315 313 312 309 306 304 302 299 297 294 292 290 287 285 284 284 283 281 279 277 274 272 271 269 267 267 268 268 266 261 255 250 247 240 233 227 225 224 224 223 222 223 225 224 223 222 220 219 217 214 212 210 209 206 203 205 206 207 208 208 209 211 212 221 225 217 206 213 227 223 200 204 212 205 206 207 205 205 204 205 206 208 211 209 208
318 316 314 314 314 312 309 305 303 301 300 298 295 292 289 287 285 284 284 284 283 282 278 276 274 271 269 266 265 266 267 266 265 260 255 251 246 239 231 225 223 223 223 221 221 222 221 220 221 220 219 218 216 213 211 210 206 203 205 207 208 209 210 211 212 216 223 225 218 207 213 228 226 198 198 207 204 207 209 206 204 201 200 199 200 209 213 214
315 314 314 315 314 311 308 305 304 303 300 297 294 290 287 286 285 286 286 286 287 287 284 281 279 275 272 267 265 265 265 264 263 261 258 254 250 244 236 228 224 222 222 221 220 220 219 217 219 219 218 218 217 214 212 212 209 206 207 209 211 213 215 216 216 218 223 225 219 210 216 230 227 198 192 202 202 203 206 206 205 201 199 197 193 196 206 212
313 313 314 315 314 311 309 306 304 301 298 295 291 288 286 287 288 289 289 289 290 290 289 285 282 279 275 272 267 264 261 261 261 258 256 254 251 248 242 233 226 223 221 221 220 219 217 217 218 219 218 218 217 214 212 212 211 207 208 211 213 214 218 221 220 220 225 228 223 217 223 232 230 201 188 198 203 201 200 204 205 203 200 200 197 195 202 207
312 312 314 316 316 313 310 306 303 300 297 293 288 285 284 286 288 288 288 289 289 290 290 287 282 277 273 272 269 266 261 258 257 254 252 251 249 249 246 238 230 225 223 221 220 219 217 215 217 218 218 218 218 215 212 211 211 209 208 211 212 213 219 224 224 222 226 231 229 224 228 235 234 213 192 196 204 201 198 202 206 205 204 204 202 199 203 207
311 313 315 317 316 313 309 306 303 301 297 291 285 283 283 284 285 286 285 285 286 288 289 287 281 275 270 267 265 264 262 259 255 251 249 248 248 247 247 243 234 227 225 223 221 219 217 214 214 216 216 216 218 217 213 211 211 211 211 212 213 214 217 222 225 224 226 232 233 227 228 234 234 222 201 198 203 202 200 204 207 207 207 208 206 202 204 209
310 313 316 317 315 312 309 306 304 301 296 289 284 283 283 284 284 284 284 283 285 287 287 285 280 273 267 263 261 260 259 258 255 250 247 246 246 245 246 245 240 231 226 225 223 220 217 214 213 214 214 214 216 216 214 211 210 210 210 212 215 215 215 218 221 222 224 230 232 227 227 231 231 224 210 202 203 203 202 205 208 209 212 213 211 206 205 209
311 315 317 317 315 312 309 306 304 301 295 289 284 284 285 286 286 286 285 286 287 287 286 283 278 272 266 262 259 257 254 252 252 250 247 245 244 243 243 243 242 236 230 227 225 221 217 215 213 213 213 213 214 214 212 211 211 210 209 211 214 215 215 219 223 223 225 230 233 230 228 230 229 226 218 207 204 204 202 205 210 212 217 222 217 209 208 212
315 318 318 317 314 311 309 307 304 301 296 290 287 288 289 289 289 289 289 289 289 288 285 282 277 272 267 263 259 255 250 246 246 247 245 244 242 240 240 240 240 239 233 229 226 222 219 216 213 213 213 211 211 212 211 210 210 209 209 211 212 212 212 216 222 224 226 230 233 233 231 229 227 229 226 213 204 204 202 202 207 211 216 222 216 207 209 215
319 320 319 317 314 312 311 309 306 303 297 293 292 292 293 293 293 293 293 292 290 288 285 282 278 272 267 264 260 255 247 241 240 241 241 240 240 238 237 236 236 237 235 232 228 223 221 218 213 211 213 212 210 210 209 208 209 209 210 212 212 211 211 214 218 220 222 226 230 232 232 227 222 226 228 220 207 204 204 200 200 204 207 208 204 200 204 212
320 320 319 317 316 315 314 312 310 306 300 296 296 297 297 297 297 296 295 294 293 289 286 282 274 266 260 263 266 256 244 238 236 236 236 235 236 236 235 233 233 234 234 233 230 225 222 220 215 210 212 213 210 209 208 207 208 209 209 212 212 211 213 215 218 219 220 224 226 229 232 225 216 219 224 223 213 204 205 203 198 199 201 201 201 200 202 207
321 320 320 320 320 320 318 316 313 307 302 301 301 301 301 300 300 299 297 297 294 289 286 278 264 254 257 272 281 266 244 237 235 234 233 232 232 233 233 232 230 231 231 232 231 227 223 221 217 211 210 213 210 208 207 206 207 208 209 211 211 211 213 214 217 219 221 224 224 228 229 220 211 216 219 221 218 206 203 205 202 200 200 199 200 202 206 211
323 323 325 326 326 324 321 319 315 310 306 306 306 305 305 304 303 303 301 299 296 292 289 281 267 266 274 280 284 275 249 236 235 234 233 231 230 231 231 231 229 228 229 230 230 228 224 222 219 212 209 212 210 207 207 206 206 207 208 210 211 211 212 214 216 218 220 221 223 226 226 214 204 213 215 217 220 212 205 205 205 205 205 203 202 206 213 216
327 328 330 332 331 329 327 324 320 315 312 312 312 311 311 309 307 307 305 302 300 292 285 282 276 273 274 273 275 276 259 240 235 235 234 233 232 230 229 230 229 226 227 229 229 229 226 223 220 215 209 209 210 207 206 206 205 205 207 209 210 211 212 213 216 219 220 219 221 224 221 201 194 207 210 213 218 217 215 212 209 208 206 205 205 209 216 219
332 333 334 335 336 335 333 331 327 322 319 319 319 317 316 314 312 312 309 305 301 285 271 271 270 267 267 266 266 269 266 252 241 238 237 235 234 232 229 228 227 225 226 228 228 229 227 225 223 217 210 208 209 207 206 207 206 205 207 208 209 210 211 213 216 219 220 218 221 224 215 188 188 200 204 211 215 217 220 218 210 206 203 203 206 208 212 215
338 338 337 339 341 339 336 335 332 329 327 325 324 322 320 318 317 316 314 308 298 281 268 266 266 266 266 264 261 261 262 256 248 243 241 239 238 236 233 229 227 225 225 226 227 228 228 226 225 220 212 206 207 207 206 207 207 205 206 208 208 209 212 213 215 217 220 219 221 222 209 187 191 199 201 208 211 210 214 213 205 202 201 203 207 210 210 209
342 341 342 344 345 342 340 339 337 335 333 330 329 325 323 323 322 319 316 307 294 281 272 268 267 268 266 261 257 255 254 253 252 251 249 245 242 240 238 234 230 227 227 226 225 226 228 227 226 224 215 207 205 206 205 206 207 205 205 207 208 209 211 213 214 216 219 220 220 219 205 189 195 201 201 203 203 200 203 205 203 202 202 205 208 211 212 209
346 347 347 348 349 347 344 343 341 338 336 334 332 329 327 328 325 322 317 307 300 291 281 276 273 269 265 261 258 254 253 253 254 257 257 253 250 247 245 242 236 231 230 227 224 224 226 227 227 226 218 208 204 205 205 206 206 205 205 206 207 209 210 212 213 215 218 219 220 217 203 191 193 196 193 192 192 191 194 199 204 207 208 209 209 209 211 211
352 353 352 352 353 350 347 345 343 341 338 337 335 333 333 333 329 325 321 311 306 302 295 288 281 272 267 267 267 266 264 262 260 262 262 260 259 256 252 250 246 238 233 231 225 222 224 226 227 227 221 211 205 204 204 204 205 204 205 206 208 208 210 212 213 214 217 219 217 214 203 192 190 187 184 186 188 190 195 201 206 210 210 209 206 205 208 209
358 358 356 355 354 351 348 346 344 343 341 340 338 337 338 338 334 331 328 319 310 306 304 302 297 286 280 280 281 281 280 278 275 273 270 266 264 263 260 258 256 247 237 234 228 221 221 224 226 226 223 214 208 205 204 203 203 203 204 207 208 208 209 211 212 213 216 217 213 210 203 193 187 183 181 184 189 191 197 203 206 207 205 201 199 200 205 208
2 2 359 357 355 352 349 348 346 344 344 343 342 342 342 341 340 338 334 327 319 316 313 310 310 305 296 294 294 293 293 290 287 284 279 274 270 268 266 263 261 254 243 237 231 221 218 221 225 226 222 216 211 207 203 203 202 202 204 206 208 208 208 210 211 212 214 215 211 208 203 192 187 184 181 184 189 191 196 201 201 200 195 192 196 200 206 210
Height
5861 5860 5860 5860 5860 5859 5859 5859 5858 5858 5858 5858 5857 5857 5857 5857 5856 5856 5855 5856 5856 5856 5856 5856 5856 5856 5856 5857 5858 5858 5858 5858 5859 5860 5860 5860 5860 5860 5861 5862 5863 5864 5865 5867 5869 5870 5871 5872 5872 5873 5874 5875 5876 5877 5878 5879 5881 5883 5884 5886 5887 5887 5888 5888 5889 5890 5891 5892 5893 5894 5895 5896 5896 5896 5896 5896 5896 5897 5897 5897 5897 5897 5898 5899 5898 5899 5899 5900
5858 5858 5858 5857 5857 5857 5857 5856 5856 5856 5856 5856 5855 5855 5855 5855 5855 5854 5853 5853 5854 5854 5854 5854 5854 5854 5854 5855 5856 5856 5857 5857 5857 5858 5858 5858 5859 5859 5860 5860 5861 5862 5864 5866 5867 5869 5869 5870 5871 5872 5873 5874 5875 5876 5877 5878 5879 5882 5883 5885 5886 5887 5887 5888 5889 5890 5891 5892 5893 5893 5894 5895 5896 5896 5896 5896 5896 5896 5897 5897 5897 5897 5897 5898 5898 5898 5898 5900
5856 5855 5855 5855 5854 5854 5854 5854 5853 5853 5853 5853 5853 5853 5853 5853 5853 5852 5852 5851 5852 5852 5852 5852 5852 5853 5853 5853 5854 5854 5855 5856 5856 5857 5857 5857 5858 5858 5859 5859 5860 5860 5862 5863 5864 5866 5866 5866 5867 5869 5871 5872 5873 5875 5876 5877 5878 5880 5883 5884 5885 5886 5887 5887 5888 5889 5890 5892 5892 5893 5894 5895 5895 5896 5896 5896 5896 5897 5897 5897 5897 5897 5897 5897 5897 5898 5898 5899
5853 5853 5852 5852 5852 5851 5851 5851 5851 5850 5850 5850 5850 5850 5850 5850 5850 5850 5850 5849 5849 5850 5850 5851 5850 5851 5851 5851 5851 5852 5853 5854 5855 5855 5855 5855 5856 5857 5858 5858 5858 5859 5860 5861 5862 5863 5864 5865 5866 5867 5868 5870 5871 5873 5874 5875 5877 5879 5881 5883 5884 5885 5886 5887 5888 5889 5890 5891 5892 5892 5893 5894 5895 5895 5895 5896 5896 5896 5897 5897 5897 5897 5897 5897 5897 5897 5897 5899
5850 5850 5849 5849 5848 5848 5848 5848 5848 5847 5847 5847 5847 5847 5847 5847 5847 5847 5847 5847 5847 5848 5848 5849 5849 5848 5849 5849 5849 5850 5851 5852 5853 5854 5854 5853 5854 5856 5856 5856 5856 5858 5859 5860 5861 5862 5864 5866 5867 5867 5868 5869 5871 5873 5873 5874 5875 5877 5879 5882 5883 5885 5886 5886 5887 5888 5889 5890 5891 5892 5892 5893 5894 5894 5894 5895 5895 5896 5896 5896 5897 5897 5897 5897 5897 5897 5897 5898
5847 5847 5847 5846 5846 5845 5845 5845 5844 5844 5844 5844 5844 5844 5844 5844 5844 5844 5844 5845 5844 5845 5846 5846 5846 5846 5847 5847 5847 5848 5848 5850 5851 5852 5851 5851 5852 5854 5854 5854 5855 5856 5857 5858 5860 5861 5863 5865 5866 5867 5868 5869 5871 5872 5872 5873 5874 5875 5878 5880 5882 5884 5885 5885 5886 5887 5888 5889 5891 5892 5892 5893 5893 5893 5894 5894 5895 5895 5896 5896 5897 5897 5896 5896 5897 5897 5897 5897
5845 5844 5844 5844 5843 5842 5842 5841 5841 5841 5841 5841 5841 5841 5841 5840 5841 5841 5841 5841 5842 5842 5843 5843 5844 5844 5844 5844 5845 5846 5846 5847 5849 5848 5848 5849 5850 5852 5853 5852 5853 5854 5855 5856 5858 5860 5862 5864 5865 5866 5866 5868 5870 5871 5871 5872 5873 5874 5876 5878 5879 5882 5883 5884 5885 5886 5887 5889 5891 5892 5892 5892 5892 5892 5893 5894 5895 5895 5896 5896 5896 5896 5896 5895 5896 5897 5897 5897
5843 5842 5842 5841 5840 5840 5839 5838 5838 5838 5838 5838 5838 5838 5838 5837 5837 5837 5837 5838 5838 5839 5839 5840 5841 5841 5842 5842 5842 5843 5843 5845 5846 5845 5846 5848 5848 5850 5850 5851 5852 5852 5853 5853 5855 5857 5859 5861 5863 5863 5865 5866 5868 5869 5869 5871 5872 5873 5875 5875 5876 5878 5880 5882 5884 5885 5887 5889 5890 5891 5892 5892 5892 5892 5893 5894 5894 5895 5895 5895 5895 5896 5895 5895 5896 5897 5897 5897
5841 5840 5839 5838 5838 5837 5836 5836 5835 5835 5835 5834 5834 5834 5834 5834 5834 5834 5834 5834 5835 5835 5836 5837 5837 5838 5839 5839 5840 5840 5840 5841 5843 5843 5844 5845 5845 5846 5848 5848 5849 5850 5851 5851 5852 5855 5857 5859 5860 5861 5862 5863 5865 5866 5867 5870 5871 5872 5871 5872 5874 5875 5877 5881 5883 5884 5887 5888 5889 5890 5891 5891 5892 5892 5892 5893 5893 5894 5895 5895 5895 5895 5895 5895 5896 5896 5897 5897
5839 5838 5837 5836 5835 5834 5833 5833 5832 5832 5832 5831 5831 5831 5831 5831 5831 5830 5830 5830 5831 5832 5832 5833 5834 5835 5835 5836 5837 5836 5837 5838 5840 5841 5841 5842 5842 5843 5844 5845 5846 5847 5848 5849 5851 5853 5855 5856 5856 5856 5858 5859 5861 5863 5865 5869 5870 5868 5867 5869 5872 5873 5875 5879 5881 5884 5886 5888 5889 5889 5890 5890 5891 5891 5892 5892 5893 5893 5894 5895 5895 5895 5895 5895 5895 5896 5896 5897
5836 5835 5834 5833 5833 5832 5831 5830 5829 5829 5828 5828 5827 5827 5828 5828 5827 5827 5827 5827 5827 5828 5828 5829 5830 5831 5832 5832 5833 5833 5834 5835 5837 5838 5838 5839 5839 5840 5841 5842 5843 5844 5845 5847 5848 5849 5850 5851 5851 5852 5854 5856 5859 5861 5863 5866 5866 5865 5865 5868 5871 5871 5873 5876 5880 5883 5885 5886 5888 5889 5889 5890 5890 5890 5891 5892 5892 5893 5894 5894 5895 5895 5895 5895 5895 5896 5896 5897
5834 5833 5832 5831 5830 5829 5828 5827 5827 5826 5825 5824 5824 5824 5824 5824 5824 5823 5823 5823 5823 5824 5825 5826 5826 5827 5827 5827 5829 5830 5831 5832 5833 5834 5835 5835 5836 5836 5837 5839 5839 5840 5842 5844 5844 5845 5846 5847 5848 5851 5853 5855 5856 5858 5860 5862 5862 5861 5862 5866 5869 5869 5871 5875 5878 5881 5883 5885 5886 5888 5889 5890 5890 5890 5890 5891 5892 5893 5894 5894 5895 5894 5894 5895 5895 5896 5896 5896
5831 5830 5829 5828 5827 5826 5825 5824 5823 5823 5822 5821 5821 5821 5821 5821 5820 5820 5819 5819 5819 5821 5822 5822 5823 5823 5823 5823 5825 5827 5826 5828 5828 5830 5831 5833 5833 5834 5834 5835 5836 5837 5839 5840 5840 5841 5843 5844 5846 5849 5851 5852 5854 5855 5857 5859 5859 5859 5861 5864 5866 5867 5870 5873 5876 5879 5881 5883 5885 5887 5889 5889 5890 5890 5890 5890 5891 5892 5893 5894 5894 5894 5894 5894 5895 5895 5896 5896
5828 5827 5826 5825 5824 5823 5822 5821 5820 5819 5818 5817 5817 5817 5817 5817 5816 5816 5815 5815 5816 5818 5818 5819 5819 5819 5818 5819 5821 5822 5821 5823 5825 5827 5829 5830 5830 5831 5831 5832 5833 5834 5835 5836 5837 5839 5841 5842 5844 5845 5846 5849 5851 5853 5855 5856 5856 5858 5859 5861 5863 5864 5868 5871 5873 5876 5879 5881 5883 5885 5887 5888 5889 5889 5889 5889 5890 5891 5891 5893 5894 5893 5893 5894 5895 5895 5895 5895
5824 5823 5822 5821 5820 5819 5818 5817 5816 5815 5815 5814 5814 5814 5813 5813 5812 5811 5810 5811 5813 5814 5814 5815 5815 5815 5814 5815 5816 5816 5817 5819 5822 5824 5825 5826 5827 5828 5828 5829 5829 5830 5832 5833 5834 5836 5838 5840 5842 5843 5845 5847 5848 5849 5852 5852 5853 5855 5856 5858 5861 5863 5867 5869 5870 5874 5876 5878 5881 5884 5886 5887 5888 5888 5888 5888 5889 5889 5890 5891 5893 5893 5894 5894 5895 5895 5895 5895
5819 5818 5817 5817 5816 5815 5814 5813 5812 5811 5810 5810 5809 5809 5809 5808 5807 5806 5805 5807 5808 5809 5810 5811 5811 5812 5811 5811 5812 5812 5813 5816 5818 5820 5821 5822 5824 5824 5824 5825 5827 5828 5829 5830 5832 5833 5835 5837 5839 5841 5843 5844 5845 5847 5850 5850 5850 5851 5853 5858 5861 5862 5866 5868 5869 5873 5875 5876 5878 5881 5884 5885 5886 5887 5886 5887 5887 5888 5889 5890 5892 5893 5893 5894 5895 5895 5895 5895
5815 5813 5812 5812 5811 5810 5809 5808 5807 5806 5806 5805 5804 5805 5804 5803 5802 5801 5800 5802 5803 5804 5805 5806 5807 5807 5807 5807 5808 5807 5809 5812 5814 5815 5816 5818 5819 5820 5820 5822 5824 5825 5826 5827 5828 5830 5833 5835 5836 5838 5839 5841 5842 5845 5846 5846 5848 5850 5853 5857 5859 5861 5864 5865 5868 5871 5872 5874 5876 5879 5882 5883 5885 5885 5885 5885 5886 5887 5888 5889 5891 5892 5893 5894 5895 5895 5895 5895
5810 5808 5807 5806 5805 5804 5803 5803 5802 5801 5801 5800 5799 5799 5798 5798 5797 5794 5794 5797 5798 5799 5800 5800 5801 5802 5802 5804 5804 5804 5805 5807 5809 5810 5811 5813 5814 5815 5816 5817 5819 5820 5821 5823 5825 5827 5829 5832 5833 5834 5836 5837 5840 5842 5844 5847 5850 5851 5853 5856 5858 5859 5861 5864 5867 5869 5870 5872 5873 5876 5879 5881 5883 5884 5884 5884 5885 5886 5887 5888 5890 5891 5892 5893 5895 5895 5894 5894
5805 5803 5802 5801 5799 5798 5798 5797 5796 5796 5796 5794 5793 5793 5793 5792 5791 5788 5787 5791 5792 5793 5794 5795 5796 5796 5797 5799 5800 5801 5801 5801 5802 5804 5806 5808 5809 5810 5811 5812 5813 5815 5817 5819 5822 5824 5826 5828 5829 5830 5834 5838 5841 5844 5845 5848 5850 5851 5852 5855 5856 5858 5860 5862 5865 5866 5868 5869 5870 5873 5877 5879 5880 5882 5883 5883 5884 5885 5885 5887 5889 5891 5892 5893 5894 5894 5894 5894
5801 5799 5796 5795 5794 5793 5792 5791 5790 5790 5790 5789 5788 5787 5786 5785 5785 5782 5780 5783 5786 5786 5787 5788 5789 5790 5792 5794 5794 5796 5797 5795 5795 5798 5800 5803 5803 5804 5805 5806 5808 5810 5813 5817 5819 5821 5822 5823 5825 5831 5837 5840 5840 5841 5842 5845 5847 5848 5849 5852 5854 5856 5858 5861 5862 5863 5864 5866 5869 5871 5874 5876 5877 5879 5881 5881 5882 5883 5884 5886 5889 5891 5891 5892 5893 5894 5894 5893
5796 5793 5791 5789 5788 5786 5785 5784 5783 5783 5783 5782 5781 5781 5780 5778 5778 5776 5774 5774 5778 5780 5780 5781 5783 5783 5785 5787 5788 5790 5791 5789 5789 5791 5794 5796 5797 5798 5800 5801 5802 5805 5810 5814 5814 5815 5816 5818 5826 5834 5836 5835 5835 5836 5838 5841 5844 5845 5847 5849 5851 5853 5856 5859 5860 5859 5860 5863 5867 5868 5870 5873 5875 5877 5878 5878 5880 5882 5884 5885 5887 5889 5890 5891 5892 5893 5893 5893
5790 5787 5785 5783 5782 5780 5778 5777 5776 5775 5774 5774 5775 5774 5773 5771 5770 5770 5770 5767 5767 5772 5773 5773 5775 5776 5778 5780 5781 5783 5784 5783 5784 5785 5788 5791 5792 5793 5794 5796 5798 5802 5806 5806 5807 5809 5811 5817 5828 5832 5830 5829 5831 5832 5834 5837 5839 5841 5843 5846 5849 5852 5855 5857 5858 5858 5857 5860 5865 5866 5867 5871 5873 5873 5874 5875 5878 5880 5881 5883 5884 5886 5887 5889 5890 5892 5893 5892
5784 5782 5779 5777 5775 5773 5771 5770 5768 5767 5766 5765 5766 5765 5764 5764 5761 5761 5764 5762 5760 5762 5764 5765 5766 5768 5771 5772 5774 5776 5776 5777 5778 5779 5782 5784 5787 5788 5789 5791 5793 5796 5798 5799 5801 5805 5809 5820 5828 5826 5823 5825 5827 5828 5831 5833 5835 5837 5839 5843 5847 5850 5853 5855 5857 5856 5854 5857 5861 5863 5863 5867 5868 5869 5870 5873 5875 5876 5878 5879 5881 5883 5885 5887 5888 5890 5891 5891
5778 5777 5774 5771 5769 5767 5764 5763 5761 5759 5758 5757 5756 5756 5755 5755 5753 5753 5755 5756 5754 5754 5755 5756 5758 5760 5762 5764 5766 5768 5768 5770 5770 5772 5776 5778 5780 5782 5785 5787 5788 5790 5793 5794 5797 5800 5807 5818 5822 5818 5818 5822 5823 5825 5828 5830 5832 5833 5836 5840 5845 5849 5851 5853 5853 5852 5852 5854 5858 5859 5859 5861 5863 5865 5869 5871 5871 5873 5874 5876 5878 5881 5883 5884 5885 5888 5889 5890
5773 5771 5769 5766 5763 5761 5759 5757 5755 5753 5751 5749 5748 5748 5747 5746 5745 5745 5746 5747 5747 5747 5747 5748 5749 5751 5753 5756 5759 5759 5760 5762 5762 5764 5770 5773 5774 5776 5779 5782 5783 5786 5788 5790 5792 5795 5803 5812 5814 5812 5814 5818 5819 5821 5824 5827 5829 5831 5834 5839 5844 5847 5848 5849 5848 5848 5849 5850 5853 5855 5855 5857 5860 5863 5868 5868 5868 5871 5873 5874 5877 5879 5881 5882 5885 5888 5889 5890
5768 5765 5763 5760 5757 5755 5753 5751 5749 5747 5745 5743 5742 5741 5741 5739 5738 5738 5738 5740 5740 5740 5740 5740 5741 5743 5745 5749 5751 5751 5752 5753 5754 5757 5761 5765 5767 5769 5772 5775 5779 5781 5783 5785 5786 5789 5798 5806 5808 5806 5808 5812 5814 5817 5820 5824 5826 5829 5834 5838 5840 5842 5843 5844 5845 5845 5845 5847 5850 5851 5851 5854 5857 5860 5865 5866 5867 5869 5871 5873 5876 5878 5880 5882 5884 5887 5889 5890
5762 5759 5757 5755 5752 5750 5749 5747 5746 5744 5743 5740 5739 5737 5736 5734 5733 5732 5732 5734 5735 5734 5734 5734 5734 5735 5738 5741 5743 5744 5745 5745 5747 5749 5752 5757 5761 5763 5766 5769 5772 5775 5777 5778 5778 5783 5793 5800 5801 5800 5802 5806 5809 5813 5818 5821 5824 5829 5834 5834 5833 5836 5838 5840 5842 5841 5842 5845 5846 5846 5847 5850 5853 5857 5862 5864 5865 5867 5868 5870 5874 5876 5878 5881 5883 5886 5888 5890
5757 5754 5752 5750 5748 5747 5746 5745 5743 5741 5740 5738 5736 5735 5733 5731 5730 5729 5728 5728 5729 5729 5729 5729 5729 5728 5731 5734 5736 5737 5737 5738 5739 5740 5744 5749 5753 5757 5759 5761 5764 5767 5769 5770 5772 5780 5789 5795 5796 5797 5799 5802 5807 5813 5817 5818 5822 5828 5830 5827 5828 5832 5834 5837 5837 5837 5840 5841 5839 5841 5844 5845 5849 5854 5858 5860 5861 5863 5865 5869 5872 5874 5877 5879 5881 5884 5886 5888
5753 5751 5749 5747 5745 5744 5742 5742 5740 5738 5737 5734 5733 5731 5730 5728 5727 5726 5725 5724 5724 5725 5725 5725 5724 5724 5726 5727 5728 5730 5731 5731 5731 5732 5737 5740 5744 5749 5750 5751 5755 5758 5762 5765 5767 5774 5784 5789 5790 5791 5795 5801 5807 5811 5812 5813 5818 5823 5824 5823 5826 5828 5829 5831 5831 5833 5836 5832 5831 5838 5840 5840 5845 5851 5853 5854 5858 5862 5866 5869 5871 5873 5875 5877 5879 5882 5884 5887
5750 5748 5746 5744 5743 5741 5739 5737 5736 5734 5733 5731 5729 5728 5726 5724 5723 5722 5721 5720 5720 5722 5722 5722 5721 5721 5723 5723 5722 5723 5724 5726 5726 5726 5729 5731 5736 5740 5741 5744 5747 5751 5755 5759 5761 5769 5778 5781 5782 5785 5791 5797 5801 5804 5805 5808 5814 5818 5818 5818 5820 5821 5823 5824 5825 5830 5829 5821 5826 5836 5837 5837 5841 5845 5848 5851 5859 5864 5866 5867 5869 5871 5873 5874 5876 5878 5881 5884
5747 5745 5743 5742 5740 5738 5736 5733 5731 5729 5728 5726 5724 5723 5722 5720 5719 5718 5717 5716 5717 5718 5719 5718 5718 5718 5718 5720 5719 5717 5718 5720 5721 5722 5722 5724 5728 5730 5732 5736 5739 5743 5748 5752 5756 5762 5769 5772 5776 5781 5785 5790 5794 5796 5799 5803 5808 5811 5811 5812 5814 5815 5817 5817 5818 5822 5817 5813 5824 5835 5835 5833 5835 5841 5847 5852 5859 5861 5862 5865 5867 5870 5872 5873 5875 5876 5879 5882
5744 5742 5740 5738 5736 5734 5732 5730 5727 5725 5723 5722 5720 5719 5718 5716 5715 5714 5713 5712 5712 5713 5715 5714 5714 5714 5713 5715 5715 5714 5714 5713 5714 5716 5717 5717 5719 5721 5724 5727 5731 5736 5740 5745 5750 5753 5761 5768 5771 5774 5778 5782 5786 5789 5792 5796 5800 5803 5804 5805 5807 5808 5809 5809 5810 5812 5808 5811 5824 5833 5832 5827 5830 5841 5847 5850 5855 5858 5861 5864 5866 5868 5871 5872 5874 5875 5877 5880
5741 5738 5736 5734 5732 5730 5728 5726 5723 5721 5719 5718 5716 5714 5713 5712 5711 5710 5709 5707 5706 5708 5709 5709 5709 5709 5709 5710 5710 5710 5709 5708 5708 5710 5711 5712 5713 5714 5717 5720 5725 5729 5732 5739 5743 5746 5754 5760 5762 5767 5772 5775 5779 5783 5786 5789 5793 5796 5797 5799 5801 5802 5802 5802 5805 5807 5806 5811 5822 5830 5828 5821 5827 5840 5844 5847 5853 5857 5860 5862 5863 5865 5866 5868 5871 5873 5875 5878
5737 5735 5732 5730 5728 5726 5723 5721 5719 5717 5714 5713 5712 5710 5709 5707 5706 5705 5705 5703 5702 5703 5704 5704 5704 5704 5703 5704 5705 5704 5704 5703 5703 5703 5704 5706 5706 5707 5710 5714 5718 5721 5726 5732 5735 5739 5745 5750 5755 5761 5765 5768 5772 5778 5784 5787 5791 5794 5796 5798 5799 5801 5802 5802 5804 5806 5806 5811 5821 5827 5821 5815 5824 5838 5843 5847 5851 5854 5857 5860 5861 5862 5863 5864 5866 5868 5871 5874
5733 5731 5728 5726 5724 5721 5719 5717 5714 5713 5710 5709 5708 5706 5704 5703 5701 5701 5700 5699 5698 5698 5698 5698 5698 5698 5697 5697 5698 5698 5698 5698 5698 5698 5698 5699 5700 5701 5703 5707 5711 5714 5719 5723 5727 5731 5737 5745 5751 5753 5757 5762 5767 5773 5779 5782 5786 5790 5793 5794 5795 5800 5802 5803 5805 5807 5808 5811 5817 5820 5814 5812 5825 5837 5842 5845 5847 5850 5855 5857 5858 5860 5860 5861 5862 5864 5867 5870
5729 5727 5724 5722 5719 5716 5714 5712 5710 5708 5706 5704 5703 5701 5700 5698 5697 5696 5695 5694 5694 5693 5693 5692 5692 5692 5691 5691 5692 5691 5691 5693 5693 5692 5691 5692 5693 5695 5697 5701 5704 5707 5710 5714 5719 5724 5731 5740 5745 5747 5754 5760 5762 5767 5772 5775 5781 5785 5786 5788 5793 5798 5800 5800 5803 5807 5808 5808 5812 5816 5813 5815 5825 5833 5838 5841 5842 5847 5851 5853 5856 5858 5859 5859 5860 5862 5865 5867
5726 5722 5720 5718 5715 5711 5709 5707 5705 5703 5701 5700 5698 5697 5695 5694 5692 5691 5690 5689 5688 5687 5686 5685 5684 5684 5684 5684 5685 5684 5684 5686 5687 5686 5685 5685 5687 5690 5692 5695 5698 5702 5704 5707 5712 5717 5725 5735 5739 5742 5749 5753 5756 5761 5766 5771 5776 5780 5783 5789 5793 5794 5795 5797 5800 5803 5804 5802 5806 5812 5813 5814 5821 5828 5834 5838 5840 5844 5848 5851 5854 5855 5856 5858 5859 5862 5864 5865
5722 5719 5716 5713 5710 5707 5704 5702 5700 5698 5696 5695 5693 5691 5689 5688 5687 5685 5684 5682 5681 5680 5679 5677 5676 5676 5675 5676 5676 5676 5678 5679 5679 5680 5679 5679 5681 5684 5687 5689 5692 5696 5698 5700 5705 5711 5719 5728 5733 5736 5742 5746 5751 5756 5761 5767 5771 5776 5783 5788 5786 5787 5791 5793 5793 5795 5797 5796 5799 5807 5809 5811 5817 5823 5831 5837 5839 5843 5847 5849 5851 5853 5855 5857 5859 5861 5862 5864
5718 5714 5711 5708 5705 5702 5699 5697 5695 5693 5691 5689 5687 5685 5684 5682 5680 5679 5677 5675 5674 5672 5671 5669 5668 5667 5667 5666 5667 5668 5669 5670 5672 5673 5673 5674 5675 5678 5681 5684 5686 5689 5691 5694 5698 5705 5712 5720 5726 5731 5736 5741 5745 5749 5756 5764 5769 5774 5778 5778 5778 5783 5789 5790 5790 5793 5795 5794 5797 5803 5806 5808 5815 5822 5828 5834 5838 5842 5844 5846 5849 5851 5854 5857 5859 5860 5861 5863
5714 5710 5706 5703 5700 5697 5694 5692 5689 5688 5686 5684 5682 5680 5678 5676 5674 5672 5670 5668 5666 5664 5662 5660 5658 5658 5657 5656 5656 5657 5659 5661 5664 5666 5667 5667 5669 5672 5675 5678 5680 5682 5685 5688 5692 5699 5705 5711 5719 5726 5730 5734 5738 5744 5753 5760 5764 5767 5769 5768 5772 5779 5784 5785 5786 5789 5791 5792 5795 5800 5802 5806 5815 5821 5825 5831 5836 5839 5842 5844 5847 5850 5853 5856 5858 5859 5860 5862
5710 5706 5702 5698 5695 5693 5690 5687 5685 5683 5681 5679 5676 5674 5672 5670 5668 5665 5663 5661 5657 5655 5653 5650 5648 5648 5647 5645 5645 5646 5648 5652 5654 5657 5660 5661 5663 5665 5668 5671 5674 5676 5679 5681 5686 5692 5698 5703 5712 5720 5724 5728 5735 5742 5749 5753 5755 5760 5762 5763 5769 5775 5778 5778 5778 5781 5786 5788 5791 5795 5796 5803 5813 5818 5821 5827 5832 5836 5839 5842 5845 5847 5850 5853 5856 5858 5859 5861
5706 5703 5698 5694 5691 5688 5685 5683 5681 5678 5676 5674 5672 5669 5667 5664 5662 5658 5655 5652 5649 5646 5644 5641 5639 5639 5639 5638 5637 5638 5640 5643 5646 5649 5652 5654 5656 5658 5661 5665 5668 5671 5673 5675 5679 5685 5690 5695 5705 5714 5719 5724 5733 5739 5742 5745 5748 5752 5755 5759 5766 5770 5772 5774 5776 5780 5783 5784 5787 5791 5791 5798 5810 5815 5818 5823 5828 5832 5836 5839 5842 5844 5847 5850 5853 5856 5858 5859
5701 5698 5695 5691 5687 5684 5681 5679 5677 5674 5672 5670 5667 5664 5661 5658 5655 5651 5647 5643 5640 5637 5635 5634 5633 5633 5634 5633 5632 5633 5634 5636 5639 5642 5645 5648 5650 5652 5656 5659 5662 5665 5667 5670 5673 5677 5683 5688 5698 5710 5717 5722 5729 5733 5734 5738 5742 5746 5751 5755 5760 5763 5767 5771 5774 5777 5779 5780 5785 5788 5787 5796 5810 5814 5816 5821 5824 5828 5832 5835 5838 5841 5843 5847 5850 5853 5856 5857
5697 5694 5691 5688 5684 5681 5678 5675 5673 5670 5667 5665 5662 5659 5655 5651 5648 5644 5640 5636 5632 5629 5628 5628 5628 5629 5629 5629 5628 5628 5629 5631 5633 5636 5639 5642 5644 5647 5650 5653 5657 5660 5661 5664 5666 5670 5677 5683 5691 5704 5712 5715 5721 5725 5726 5731 5736 5741 5746 5749 5754 5759 5764 5768 5770 5771 5772 5776 5782 5784 5785 5798 5810 5811 5813 5817 5820 5824 5828 5831 5834 5837 5840 5843 5846 5849 5852 5854
5693 5690 5687 5685 5681 5678 5675 5672 5669 5665 5662 5659 5656 5652 5649 5645 5641 5637 5633 5629 5626 5625 5623 5624 5624 5625 5625 5625 5625 5625 5626 5627 5629 5631 5634 5637 5639 5642 5645 5648 5651 5654 5656 5658 5661 5665 5672 5677 5683 5694 5703 5706 5711 5716 5720 5724 5728 5734 5739 5744 5749 5755 5759 5764 5766 5766 5769 5775 5779 5779 5786 5799 5806 5806 5809 5813 5815 5819 5822 5826 5830 5832 5836 5839 5842 5845 5847 5850
5691 5687 5683 5681 5678 5674 5671 5668 5665 5661 5657 5654 5650 5647 5643 5639 5634 5631 5627 5624 5622 5621 5620 5620 5621 5621 5621 5621 5622 5622 5622 5624 5625 5627 5630 5632 5635 5637 5640 5643 5646 5648 5650 5652 5656 5661 5666 5670 5676 5685 5695 5702 5707 5711 5715 5719 5723 5729 5735 5740 5746 5751 5755 5758 5761 5763 5768 5775 5775 5776 5788 5799 5800 5801 5805 5808 5810 5814 5817 5821 5825 5829 5832 5835 5837 5839 5841 5844
5688 5684 5680 5677 5674 5670 5667 5664 5661 5657 5653 5649 5646 5642 5638 5633 5629 5625 5622 5620 5619 5618 5617 5618 5617 5617 5617 5618 5618 5619 5619 5620 5622 5624 5626 5628 5630 5633 5635 5638 5640 5643 5645 5648 5652 5656 5659 5663 5670 5677 5688 5697 5702 5706 5710 5715 5720 5726 5731 5737 5743 5748 5750 5754 5758 5763 5768 5771 5772 5776 5788 5796 5797 5799 5802 5804 5807 5811 5814 5818 5822 5825 5828 5831 5832 5834 5835 5838
5685 5681 5677 5674 5671 5668 5664 5660 5657 5653 5649 5646 5642 5638 5633 5629 5624 5620 5618 5617 5616 5616 5615 5615 5614 5614 5614 5614 5615 5616 5616 5617 5619 5620 5622 5624 5626 5628 5631 5633 5635 5638 5640 5643 5647 5650 5652 5658 5665 5671 5680 5691 5697 5702 5706 5710 5716 5722 5727 5733 5738 5742 5745 5750 5756 5761 5764 5767 5770 5778 5787 5793 5795 5797 5799 5801 5805 5808 5811 5814 5817 5820 5823 5825 5828 5830 5832 5834
5683 5679 5675 5672 5669 5665 5661 5657 5653 5650 5646 5642 5638 5635 5630 5625 5621 5617 5615 5614 5614 5613 5612 5612 5612 5611 5611 5611 5612 5613 5614 5615 5616 5617 5618 5620 5622 5624 5626 5628 5630 5632 5635 5638 5642 5644 5647 5653 5659 5664 5673 5685 5693 5698 5702 5706 5712 5719 5724 5729 5733 5737 5742 5747 5753 5758 5761 5764 5770 5779 5787 5791 5792 5794 5796 5798 5801 5804 5808 5811 5813 5816 5819 5821 5824 5827 5829 5831
5681 5677 5674 5670 5667 5663 5659 5655 5651 5647 5644 5640 5636 5632 5627 5622 5618 5614 5613 5613 5612 5611 5610 5610 5610 5610 5610 5609 5610 5611 5611 5612 5614 5614 5615 5616 5618 5619 5621 5623 5625 5627 5630 5634 5637 5639 5643 5649 5654 5658 5667 5680 5689 5695 5698 5702 5709 5715 5720 5724 5728 5734 5739 5744 5750 5755 5757 5761 5770 5779 5786 5788 5789 5790 5792 5795 5798 5801 5805 5807 5810 5813 5815 5818 5821 5824 5826 5828
5680 5676 5673 5669 5666 5662 5658 5653 5649 5645 5642 5638 5634 5629 5625 5620 5616 5613 5612 5611 5611 5610 5609 5609 5609 5608 5608 5608 5608 5609 5609 5610 5611 5611 5612 5613 5614 5615 5616 5619 5620 5622 5625 5629 5631 5634 5639 5645 5649 5653 5662 5674 5684 5690 5694 5699 5705 5711 5715 5719 5724 5730 5736 5740 5746 5751 5754 5760 5769 5776 5781 5785 5787 5787 5789 5792 5795 5799 5802 5805 5808 5810 5813 5816 5819 5821 5823 5825
5679 5676 5672 5669 5665 5661 5656 5652 5648 5644 5640 5637 5632 5628 5623 5619 5615 5613 5611 5610 5610 5609 5608 5608 5608 5607 5607 5606 5607 5607 5607 5608 5608 5608 5609 5609 5610 5611 5613 5614 5616 5618 5621 5623 5627 5631 5635 5640 5644 5648 5656 5668 5678 5685 5691 5695 5700 5705 5709 5714 5720 5726 5732 5737 5743 5747 5751 5758 5767 5772 5777 5783 5784 5785 5787 5790 5793 5796 5800 5803 5806 5809 5812 5815 5817 5819 5821 5823